User: anonymous   Login
Location: Amon Carter Post Office
(32.8281°N, 97.0484°W)
Time: 14:53:09
(UTC+00:00)
Language:

CZ-2C R/B - Orbit

View from above orbital plane
View from above orbital plane
View from above satellite
View from above satellite

Ground track
Ground track

The orbit data is extracted from the following two-line orbital elements,

1 31114U 07010B   22146.06819099  .00000163  00000-0  94741-4 0  9994
2 31114  98.2397 320.7462 0059726   4.4625 355.7073 14.19428461783394
Epoch (UTC): 26 May 2022 01:38:11
Eccentricity: 0.0059726
inclination: 98.2397°
perigee height: 784 km
apogee height: 870 km
right ascension of ascending node: 320.7462°
argument of perigee: 4.4625°
revolutions per day: 14.19428461
mean anomaly at epoch: 355.7073°
orbit number at epoch: 78339

The dashed part of the orbit path shows where the satellite is in the earth's shadow,  

DLR